Regional Weather Roundup
Issued by NWS

Home | Current Version | Previous Version | Graphics & Text | Print | Product List | Glossary On
Versions: 1 2 3 4 5 6 7 8 9 10 11 12 13 14 15 16 17 18 19 20 21 22 23 24 25 26 27 28 29 30 31 32 33 34 35 36 37 38 39 40 41 42 43 44 45 46 47 48 49 50
000
ASUS43 KOAX 161210
RWRNE

WEATHER ROUNDUP FOR NEBRASKA
NATIONAL WEATHER SERVICE OMAHA NE
700 AM CDT WED APR 16 2014

NOTES: SATELLITE DATA IS BEING USED TO AUGMENT CLOUD COVER ABOVE
       12000 FEET.
       "FAIR" INDICATES FEW OR NO CLOUDS BELOW 12,000 FEET WITH NO
       SIGNIFICANT WEATHER AND/OR OBSTRUCTIONS TO VISIBILITY.

  * THESE STATIONS DO NOT REPORT WEATHER SUCH AS RAIN...SNOW OR FOG.

NEZ001>004-019>022-054>056-161300-
NEBRASKA PANHANDLE

CITY           SKY/WX    TMP DP  RH WIND       PRES   REMARKS
SCOTTSBLUFF    MOCLDY    40  33  76 NW18      29.78R WCI  31
6HR MIN TEMP:  40; 6HR MAX TEMP:  56;

ALLIANCE       LGT RAIN  38  35  89 NW26G35   29.72R WCI  26
6HR MIN TEMP:  37; 6HR MAX TEMP:  56; 6HR PCP: TRACE;

CHADRON        LGT RAIN  40  37  89 NW21G26   29.74R WCI  30
6HR MIN TEMP:  39; 6HR MAX TEMP:  49; 6HR PCP:  0.36;

KIMBALL        CLEAR     36  30  79 NW17G26   29.77R WCI  26
SIDNEY         PTCLDY    38  31  76 NW26G35   29.75R WCI  26
6HR MIN TEMP:  38; 6HR MAX TEMP:  51;

$$

NEZ057>060-069>072-079>082-161300-
SOUTHWEST NEBRASKA

CITY           SKY/WX    TMP DP  RH WIND       PRES   REMARKS
NORTH PLATTE   PTCLDY    34  27  75 CALM      29.58R
6HR MIN TEMP:  33; 6HR MAX TEMP:  51;

IMPERIAL       PTCLDY    47  35  63 NW28G36   29.66R
6HR MIN TEMP:  40; 6HR MAX TEMP:  49;

LEXINGTON      PTCLDY    41  26  55 SE8       29.59F
MCCOOK         PTCLDY    41  28  60 W9        29.62R
6HR MIN TEMP:  39; 6HR MAX TEMP:  50;

OGALLALA       PTCLDY    45  34  64 NW23G31   29.69R
$$

NEZ005>010-023>029-035>040-094-161300-
NORTH CENTRAL NEBRASKA

CITY           SKY/WX    TMP DP  RH WIND       PRES   REMARKS
VALENTINE      CLOUDY    39  29  67 NW22G29   29.60R WCI  29
6HR MIN TEMP:  39; 6HR MAX TEMP:  58;

AINSWORTH      CLOUDY    43  31  62 NW16G26   29.57R
BROKEN BOW     MOCLDY    42  25  50 S7        29.55F
6HR MIN TEMP:  42; 6HR MAX TEMP:  50;

O`NEILL        CLOUDY    48  23  37 S12       29.53R
ORD            MOCLDY    44  25  47 S9        29.57F
6HR MIN TEMP:  44; 6HR MAX TEMP:  49;

THEDFORD       MOCLDY    47  36  65 NW12G18   29.60R
$$

NEZ041-046>049-061>064-073>077-083>087-161300-
SOUTH CENTRAL NEBRASKA

CITY           SKY/WX    TMP DP  RH WIND       PRES   REMARKS
GRAND ISLAND   CLOUDY    47  22  37 S18       29.63R
6HR MIN TEMP:  47; 6HR MAX TEMP:  51;

AURORA         CLOUDY    46  23  39 S17G24    29.65R
HASTINGS       CLOUDY    45  21  38 S9        29.64R
6HR MIN TEMP:  45; 6HR MAX TEMP:  49;

HEBRON         CLOUDY    47  20  35 S14G20    29.70R
HOLDREGE       PTCLDY    42  22  45 S13       29.62R
KEARNEY *      MOCLDY    39  25  56 S10       29.62F WCI  32
YORK           CLOUDY    45  23  42 S16G22    29.66S
$$

NEZ011>018-030>034-042>045-161300-
NORTHEAST NEBRASKA

CITY           SKY/WX    TMP DP  RH WIND       PRES   REMARKS
NORFOLK        CLOUDY    46  23  40 S14       29.64F
6HR MIN TEMP:  46; 6HR MAX TEMP:  50;

ALBION         CLOUDY    42  27  55 SE9       29.61F
BLAIR          CLOUDY    46  28  48 S25G32    29.71S
COLUMBUS *     CLOUDY    46  21  36 S14G23    29.67R
FREMONT        CLOUDY    47  26  43 SE15      29.70S
TEKAMAH        CLOUDY    47  28  47 S18       29.72R
6HR MIN TEMP:  47; 6HR MAX TEMP:  49;

$$

NEZ050>053-065>068-078-088>093-161300-
SOUTHEAST NEBRASKA

CITY           SKY/WX    TMP DP  RH WIND       PRES   REMARKS
LINCOLN        CLOUDY    51  22  31 S26G33    29.69F
6HR MIN TEMP:  48; 6HR MAX TEMP:  51;

OMAHA EPPLEY   CLOUDY    46  29  51 S26       29.75S
6HR MIN TEMP:  45; 6HR MAX TEMP:  49;

BEATRICE       CLOUDY    47  24  39 S17G25    29.72F
FALLS CITY     PTCLDY    46  28  49 S22G31    29.83R
6HR MIN TEMP:  44; 6HR MAX TEMP:  47;

NEBRASKA CITY  CLOUDY    45  29  53 S20G28    29.78S
PLATTSMOUTH    CLOUDY    46  27  46 S20G33    29.76S
$$

NEZ044-045-051>053-067-161300-
OMAHA AREA

CITY           SKY/WX    TMP DP  RH WIND       PRES   REMARKS
OMAHA EPPLEY   CLOUDY    46  29  51 S26       29.75S
6HR MIN TEMP:  45; 6HR MAX TEMP:  49;

BLAIR          CLOUDY    46  28  48 S25G32    29.71S
FREMONT        CLOUDY    47  26  43 SE15      29.70S
MILLARD        CLOUDY    47  28  47 S9G18     29.75R
OFFUTT AFB     CLOUDY    44  31  59 SE13      29.76S
PLATTSMOUTH    CLOUDY    46  27  46 S20G33    29.76S
WAHOO          PTSUNNY   46  26  45 SE13      29.71S
$$



USA.gov is the U.S. government's official web portal to all federal, state and local government web resources and services.